Weather History for KLHM - October, 2013

Change the Weather History Date:

Sunday, October 6, 2013

  Actual Average (KAUN) Record (KAUN)
Temperature  
Mean Temperature 63 °F -  
Max Temperature 84 °F 81 °F 95 °F (1952)
Min Temperature 42 °F 55 °F 37 °F (2007)
Degree Days  
Heating Degree Days 2    
Growing Degree Days 13 (Base 50)    
Moisture  
Dew Point 32 °F    
Average Humidity 39    
Maximum Humidity 70    
Minimum Humidity 12    
Precipitation  
Precipitation 0.00 in - - ()
Sea Level Pressure  
Sea Level Pressure 30.07 in    
Wind  
Wind Speed 4 mph (NNE)    
Max Wind Speed 9 mph    
Max Gust Speed -    
Visibility 10 miles    
Events      
Averages and records for this station are not official NWS values.
T = Trace of Precipitation, MM = Missing Value Source: NWS Daily Summary

Daily Weather History Graph

Daily Weather History Graph

Search for Another Location

Airport or City:

Trip Planner

Search our weather history database for the weather conditions in past years. The results will help you decide how hot, cold, wet, or windy it might be!

Date:

Astronomy

Oct. 06, 2013 Rise Set
Actual Time 7:06 AM PDT 6:39 PM PDT
Civil Twilight 6:39 AM PDT 7:06 PM PDT
Nautical Twilight 6:08 AM PDT 7:37 PM PDT
Astronomical Twilight 5:37 AM PDT 8:08 PM PDT
Moon 8:55 AM PDT 7:44 PM PDT
Length of Visible Light 12h 26m
Length of Day
11h 33m
Waxing Crescent, 4% of the Moon is Illuminated
Oct 6
Waxing Crescent
Oct 11
First Quarter
Oct 18
Full
Oct 26
Last Quarter
Nov 3
New

Hourly Weather History & Observations

Time (PDT) Temp. Windchill Dew Point Humidity Pressure Visibility Wind Dir Wind Speed Gust Speed Precip Events Conditions
12:15 AM 53.6 °F - 32.0 °F 44% 30.12 in 10.0 mi East 8.1 mph - N/A   Clear
12:35 AM 51.8 °F - 32.0 °F 47% 30.12 in 10.0 mi East 5.8 mph - N/A   Clear
12:55 AM 53.6 °F - 32.0 °F 44% 30.12 in 10.0 mi East 6.9 mph - N/A   Clear
1:15 AM 51.8 °F - 32.0 °F 47% 30.12 in 10.0 mi ENE 6.9 mph - N/A   Clear
1:35 AM 51.8 °F - 32.0 °F 47% 30.12 in 10.0 mi ENE 5.8 mph - N/A   Clear
1:55 AM 50.0 °F - 32.0 °F 50% 30.12 in 10.0 mi ENE 5.8 mph - N/A   Clear
2:15 AM 50.0 °F - 32.0 °F 50% 30.11 in 10.0 mi NE 3.5 mph - N/A   Clear
2:35 AM 48.2 °F - 32.0 °F 54% 30.11 in 10.0 mi NE 3.5 mph - N/A   Clear
2:55 AM 46.4 °F 45.2 °F 33.8 °F 62% 30.11 in 10.0 mi North 3.5 mph - N/A   Clear
3:15 AM 46.4 °F - 33.8 °F 62% 30.10 in 10.0 mi Calm Calm - N/A   Clear
3:35 AM 44.6 °F - 33.8 °F 66% 30.10 in 10.0 mi Calm Calm - N/A   Clear
3:55 AM 48.2 °F - 32.0 °F 54% 30.10 in 10.0 mi Calm Calm - N/A   Clear
4:15 AM 44.6 °F 43.1 °F 32.0 °F 61% 30.09 in 10.0 mi NNE 3.5 mph - N/A   Clear
4:35 AM 44.6 °F 42.2 °F 33.8 °F 66% 30.10 in 10.0 mi NNE 4.6 mph - N/A   Clear
4:55 AM 42.8 °F 41.1 °F 33.8 °F 70% 30.09 in 10.0 mi NNE 3.5 mph - N/A   Clear
5:15 AM 42.8 °F - 33.8 °F 70% 30.09 in 10.0 mi Calm Calm - N/A   Clear
5:35 AM 44.6 °F - 33.8 °F 66% 30.10 in 4.0 mi Calm Calm - N/A   Clear
5:55 AM 44.6 °F - 32.0 °F 61% 30.10 in 10.0 mi Calm Calm - N/A   Clear
6:15 AM 44.6 °F - 32.0 °F 61% 30.10 in 10.0 mi Calm Calm - N/A   Clear
6:35 AM 42.8 °F - 32.0 °F 66% 30.11 in 10.0 mi Calm Calm - N/A   Clear
6:55 AM 42.8 °F - 32.0 °F 66% 30.11 in 10.0 mi Calm Calm - N/A   Clear
7:15 AM 42.8 °F - 32.0 °F 66% 30.12 in 7.0 mi Calm Calm - N/A   Clear
7:35 AM 44.6 °F - 32.0 °F 61% 30.12 in 10.0 mi Calm Calm - N/A   Clear
7:55 AM 46.4 °F - 33.8 °F 62% 30.13 in 1.8 mi Calm Calm - N/A   Unknown
8:15 AM 48.2 °F - 35.6 °F 62% 30.13 in 10.0 mi Calm Calm - N/A   Clear
8:35 AM 53.6 °F - 35.6 °F 51% 30.13 in 10.0 mi Calm Calm - N/A   Clear
8:55 AM 57.2 °F - 33.8 °F 41% 30.14 in 10.0 mi Calm Calm - N/A   Clear
9:15 AM 62.6 °F - 32.0 °F 32% 30.14 in 10.0 mi Calm Calm - N/A   Clear
9:35 AM 66.2 °F - 30.2 °F 26% 30.14 in 10.0 mi Calm Calm - N/A   Clear
9:55 AM 68.0 °F - 30.2 °F 24% 30.14 in 10.0 mi Calm Calm - N/A   Clear
10:15 AM 69.8 °F - 30.2 °F 23% 30.14 in 10.0 mi West 4.6 mph - N/A   Clear
10:35 AM 71.6 °F - 30.2 °F 22% 30.14 in 10.0 mi SW 3.5 mph - N/A   Clear
10:55 AM 71.6 °F - 32.0 °F 23% 30.13 in 10.0 mi WNW 4.6 mph - N/A   Clear
11:15 AM 71.6 °F - 32.0 °F 23% 30.13 in 10.0 mi WSW 4.6 mph - N/A   Clear
11:35 AM 73.4 °F - 32.0 °F 22% 30.12 in 10.0 mi WSW 3.5 mph - N/A   Clear
11:55 AM 73.4 °F - 30.2 °F 20% 30.12 in 10.0 mi West 3.5 mph - N/A   Clear
12:15 PM 77.0 °F - 32.0 °F 19% 30.11 in 10.0 mi Calm Calm - N/A   Clear
12:35 PM 77.0 °F - 32.0 °F 19% 30.10 in 10.0 mi NW 3.5 mph - N/A   Clear
12:55 PM 78.8 °F - 32.0 °F 18% 30.09 in 10.0 mi Calm Calm - N/A   Clear
1:15 PM 80.6 °F - 32.0 °F 17% 30.09 in 10.0 mi West 3.5 mph - N/A   Clear
1:35 PM 80.6 °F - 32.0 °F 17% 30.08 in 10.0 mi NNW 3.5 mph - N/A   Clear
1:55 PM 80.6 °F - 32.0 °F 17% 30.07 in 10.0 mi WNW 4.6 mph - N/A   Clear
2:15 PM 80.6 °F - 28.4 °F 15% 30.06 in 10.0 mi NW 3.5 mph - N/A   Clear
2:35 PM 82.4 °F - 28.4 °F 14% 30.05 in 10.0 mi WNW 3.5 mph - N/A   Clear
2:55 PM 82.4 °F - 24.8 °F 12% 30.04 in 10.0 mi Calm Calm - N/A   Clear
3:15 PM 82.4 °F - 28.4 °F 14% 30.04 in 10.0 mi Calm Calm - N/A   Clear
3:35 PM 82.4 °F - 28.4 °F 14% 30.03 in 10.0 mi Calm Calm - N/A   Clear
3:55 PM 82.4 °F - 26.6 °F 13% 30.02 in 10.0 mi Calm Calm - N/A   Clear
4:15 PM 82.4 °F - 26.6 °F 13% 30.01 in 10.0 mi West 3.5 mph - N/A   Clear
4:35 PM 84.2 °F - 26.6 °F 12% 30.01 in 10.0 mi WNW 3.5 mph - N/A   Scattered Clouds
4:55 PM 82.4 °F - 26.6 °F 13% 30.01 in 10.0 mi West 4.6 mph - N/A   Scattered Clouds
5:15 PM 80.6 °F - 26.6 °F 14% 30.00 in 10.0 mi WNW 3.5 mph - N/A   Clear
5:35 PM 78.8 °F - 28.4 °F 16% 30.00 in 10.0 mi West 3.5 mph - N/A   Clear
5:55 PM 77.0 °F - 32.0 °F 19% 30.00 in 10.0 mi WNW 3.5 mph - N/A   Clear
6:15 PM 75.2 °F - 32.0 °F 21% 30.00 in 10.0 mi Calm Calm - N/A   Clear
6:35 PM 75.2 °F - 32.0 °F 21% 30.00 in 10.0 mi Calm Calm - N/A   Clear
6:55 PM 71.6 °F - 32.0 °F 23% 30.00 in 10.0 mi Calm Calm - N/A   Clear
7:15 PM 69.8 °F - 33.8 °F 27% 30.00 in 10.0 mi Calm Calm - N/A   Clear
7:35 PM 66.2 °F - 32.0 °F 28% 30.00 in 10.0 mi Calm Calm - N/A   Clear
7:55 PM 59.0 °F - 33.8 °F 39% 30.00 in 10.0 mi East 4.6 mph - N/A   Clear
8:15 PM 57.2 °F - 35.6 °F 44% 30.00 in 10.0 mi ENE 4.6 mph - N/A   Clear
8:35 PM 55.4 °F - 37.4 °F 51% 30.00 in 10.0 mi East 5.8 mph - N/A   Clear
8:55 PM 53.6 °F - 37.4 °F 54% 30.00 in 10.0 mi East 5.8 mph - N/A   Clear
9:15 PM 55.4 °F - 37.4 °F 51% 30.00 in 10.0 mi East 6.9 mph - N/A   Clear
9:35 PM 53.6 °F - 37.4 °F 54% 30.00 in 10.0 mi East 6.9 mph - N/A   Clear
9:55 PM 51.8 °F - 37.4 °F 58% 30.00 in 10.0 mi East 6.9 mph - N/A   Clear
10:15 PM 55.4 °F - 35.6 °F 47% 30.00 in 10.0 mi East 6.9 mph - N/A   Clear
10:35 PM 55.4 °F - 35.6 °F 47% 30.00 in 10.0 mi ENE 8.1 mph - N/A   Clear
10:55 PM 57.2 °F - 35.6 °F 44% 29.99 in 10.0 mi East 9.2 mph - N/A   Clear
11:15 PM 57.2 °F - 35.6 °F 44% 29.99 in 10.0 mi East 6.9 mph - N/A   Clear
11:35 PM 57.2 °F - 33.8 °F 41% 29.99 in 10.0 mi ENE 6.9 mph - N/A   Clear
11:55 PM 55.4 °F - 33.8 °F 44% 29.98 in 10.0 mi ENE 6.9 mph - N/A   Clear